Regional Weather Roundup
Issued by NWS

Home | Current Version | Previous Version | Graphics & Text | Print | Product List | Glossary On
Versions: 1 2 3 4 5 6 7 8 9 10 11 12 13 14 15 16 17 18 19 20 21 22 23 24 25 26 27 28 29 30 31 32 33 34 35 36 37 38 39 40 41 42 43 44 45 46 47 48 49 50
000
ASUS43 KMPX 041310
RWRMN
WEATHER ROUNDUP FOR MINNESOTA
NATIONAL WEATHER SERVICE TWIN CITIES/CHANHASSEN MN
800 AM CDT WED MAY 04 2016


NOTE: "FAIR" INDICATES FEW OR NO CLOUDS BELOW 12,000 FEET WITH NO
SIGNIFICANT WEATHER AND/OR OBSTRUCTIONS TO VISIBILITY. N/A MEANS
CURRENT SKY AND/OR WEATHER CONDITIONS ARE NOT AVAILABLE.

MNZ060>063-068>070-041400-
   Twin Cities Metro

CITY           SKY/WX    TMP DP  RH WIND       PRES   REMARKS
TWIN CITIES    SUNNY     51  33  50 N13       29.98R
ST PAUL        SUNNY     50  34  54 NW10      29.99R
CRYSTAL        SUNNY     51  33  50 NW8       29.98R
BLAINE         SUNNY     63  36  36 NW7       29.96
EDEN PRAIRIE   SUNNY     51  33  50 N9        29.98R
SOUTH ST PAUL  SUNNY     50  33  51 N8        29.97R
LAKE ELMO      FAIR      48  36  61 N8        29.98R
$$
MNZ001>005-007-008-013>017-022>024-027-028-041400-
   Northwest Minnesota

CITY           SKY/WX    TMP DP  RH WIND       PRES   REMARKS
BEMIDJI        SUNNY     44  37  78 N5        30.04R
HALLOCK        SUNNY     43  36  75 N6        30.10R
ROSEAU         SUNNY     43  37  81 N6        30.09R
WARROAD        SUNNY     43  37  81 N7        30.08R
THIEF RVR FALL SUNNY     46  34  61 N8        30.09R
CROOKSTON      SUNNY     43  34  70 N6        30.10R
FOSSTON        SUNNY     45  36  70 N5        30.07R
DETROIT LAKES  SUNNY     43  36  75 N3        30.06R
MOORHEAD       SUNNY     43  32  65 N10       30.09R
PARK RAPIDS    SUNNY     46  35  65 N9        30.03R
MAHNOMEN       FAIR      42  36  80 N6        30.07R
$$
MNZ006-009>011-018-025>026-041400-
   North Central Minnesota

CITY           SKY/WX    TMP DP  RH WIND       PRES   REMARKS
BAUDETTE       SUNNY     44  32  62 N8        30.06R
FLAG ISLAND    SUNNY     43  32  65 N8        30.07R
INTL FALLS     SUNNY     42  31  64 N12       30.02R
WASKISH        SUNNY     45  36  70 N7        30.06R
BIG FORK       SUNNY     43  34  70 N6        30.02R
LONGVILLE      SUNNY     46  36  66 N5        30.02R
GRAND RAPIDS   SUNNY     45  32  61 N10       30.01S
CRANE LAKE     SUNNY     39  32  75 N8        30.02R
ORR            SUNNY     41  30  65 CALM      29.97S
COOK           SUNNY     43  34  70 N6        29.99R
WALKER         FAIR      44  35  69 N8        30.03R
$$
MNZ012-019>021-037-041400-
   Northeast Minnesota

CITY           SKY/WX    TMP DP  RH WIND       PRES   REMARKS
DULUTH         SUNNY     45  32  60 N10       29.95R
ELY            SUNNY     39  28  65 N8        29.96R
HIBBING        SUNNY     42  33  70 N10       29.98R
EVELETH        SUNNY     43  30  61 N8        29.98R
DULUTH HARBOR  SUNNY     46  36  66 N6        29.97R
TWO HARBORS    SUNNY     48  36  61 N7        29.92S
SILVER BAY     SUNNY     46  30  53 NW6       29.91S
GRAND MARAIS     N/A     43  27  53 N9G21     29.93R
G MARAIS ARPRT MOSUNNY   36  23  60 N17G25    29.91R
$$
MNZ029>031-032-039>041-046>048-054>057-064-041400-
   West Central Minnesota

CITY           SKY/WX    TMP DP  RH WIND       PRES   REMARKS
FERGUS FALLS   SUNNY     46  37  71 CALM      30.04S
WHEATON        SUNNY     48  36  61 NW7       30.09R
MORRIS         SUNNY     45  36  70 MISG      30.05R
ALEXANDRIA     SUNNY     49  36  61 N6        30.05R
ELBOW LAKE     FAIR      44  38  78 NW3       30.06R
WADENA         SUNNY     45  36  70 N6        30.03S
GLENWOOD       SUNNY     48  37  66 NW6       30.04R
APPLETON       SUNNY     48  36  61 N8        30.05R
BENSON         SUNNY     46  36  66 N5        30.05R
ORTONVILLE     SUNNY     46  34  61 NW8       30.07R
MADISON        SUNNY     46  36  66 NW7       30.06R
WILLMAR        FAIR      48  37  66 NW6       30.05R
$$
MNZ033>034-036-042>043-049>051-058-059-041400-
   Central Minnesota

CITY           SKY/WX    TMP DP  RH WIND       PRES   REMARKS
ST CLOUD       SUNNY     48  35  60 NW8       30.00R
SAUK CENTRE    FAIR      46  35  67 NW6       30.04R
PAYNESVILLE    SUNNY     47  35  62 NW6       30.03R
AITKIN         SUNNY     48  32  53 N7        29.99R
PINE RIVER     SUNNY     46  37  71 NW7       30.05R
BRAINERD       SUNNY     47  35  63 N10       30.02R
STAPLES        SUNNY     46  34  61 N7        30.03R
LONG PRAIRIE   FAIR      46  34  61 NW6       30.03R
LITTLE FALLS   SUNNY     46  34  61 NW5       30.02R
LITCHFIELD     SUNNY     50  36  57 NW7       30.02R
BUFFALO        SUNNY     48  34  59 NW7       30.01R
MAPLE LAKE     SUNNY     49  37  64 NW8       30.01R
HUTCHINSON     SUNNY     50  37  61 N8        30.02R
$$
MNZ037-044-045-052-053-041400-
   East Central Minnesota

CITY           SKY/WX    TMP DP  RH WIND       PRES   REMARKS
PRINCETON      SUNNY     50  36  57 NW7       29.99R
MORA           SUNNY     46  34  61 N9        30.00R
CAMBRIDGE      SUNNY     50  36  57 N7        29.97R
RUSH CITY      SUNNY     47  34  60 N7        29.98R
MOOSE LAKE     SUNNY     45  32  61 N12       29.96R
HINCKLEY       CLOUDY    46  34  61 NW8       29.98R
CLOQUET        SUNNY     45  32  61 N9        29.97R
MCGREGOR       SUNNY     45  34  65 N9        30.00R
$$
MNZ071>073-080-081-089-090-097-098-041400-
   Southwest Minnesota

CITY           SKY/WX    TMP DP  RH WIND       PRES   REMARKS
MONTEVIDEO     SUNNY     48  36  61 N5        30.07R
GRANITE FALLS  SUNNY     50  37  62 NW6       30.06R
CANBY          SUNNY     49  38  67 W9        30.07R
MARSHALL       SUNNY     46  35  65 NW8       30.06R
REDWOOD FALLS  SUNNY     48  33  56 N8        30.03R
OLIVIA         SUNNY     48  36  61 NW8       30.03R
PIPESTONE      SUNNY     46  34  61 N3        30.04R
WINDOM         SUNNY     46  36  66 N10       30.02R
WORTHINGTON    SUNNY     46  36  68 N12       30.04R
JACKSON        SUNNY     46  34  61 VRB7      30.02R
TRACY          SUNNY     47  36  66 NW9       30.04R
SLAYTON        SUNNY     46  35  66 N8        30.04S
$$
MNZ065>067-074>077-082>085-091>093-041400-
   South Central Minnesota

CITY           SKY/WX    TMP DP  RH WIND       PRES   REMARKS
MANKATO        SUNNY     48  34  57 N10       29.99R
NEW ULM        SUNNY     46  34  61 N7        30.01R
ST JAMES       SUNNY     45  30  57 N8        30.02R
FAIRMONT       SUNNY     48  34  57 N10       30.00R
GLENCOE        SUNNY     50  38  64 NW8       30.00R
FARIBAULT      SUNNY     48  36  61 NW7       29.98R
OWATONNA       SUNNY     48  34  57 N10       29.97R
WASECA         SUNNY     50  36  57 N10       30.00R
ALBERT LEA     SUNNY     48  34  57 N10       29.97R
$$
MNZ078>079-086>088-094>096-041400-
   Southeast Minnesota

CITY           SKY/WX    TMP DP  RH WIND       PRES   REMARKS
ROCHESTER      SUNNY     48  36  63 N13       29.95R
RED WING       SUNNY     50  34  53 N7        29.95R
STANTON        SUNNY     49  35  57 N10       29.96R
DODGE CENTER   SUNNY     46  34  61 N12       29.95R
WINONA         SUNNY     50  36  57 N9        29.92S
AUSTIN         SUNNY     46  36  66 N10       29.95R
PRESTON        SUNNY     45  34  66 N10       29.93R
$$
ABBREVIATIONS USED IN REMARKS
   TC - TEMPERATURES IN CELSIUS
  WCI - WIND CHILL INDEX
   HX - HEAT INDEX
  VSB - VISIBILITY
$$




USA.gov is the U.S. government's official web portal to all federal, state and local government web resources and services.